{"data":{"norad_id":61745,"epoch":"2026-09-22T22:32:05.743104Z","epoch_age_seconds":89259,"freshness":"FRESH","line1":"1 61745U 24199L   26265.93895536  .00089642  00000+0  60996-3 0  9998","line2":"2 61745  97.2744 147.3162 0001598 194.1410 165.9811 15.74636157152997","mean_motion":15.74636157,"eccentricity":0.0001598,"inclination_deg":97.2744,"raan_deg":147.3162,"arg_perigee_deg":194.141,"mean_anomaly_deg":165.9811,"bstar":0.00060996,"rev_number":15299,"period_min":91.4496973538,"perigee_km":344.59227445018,"apogee_km":346.74120212494,"semimajor_km":6723.8037382876,"source":"CELESTRAK","updated_at":"2026-09-23T09:00:21.025054Z"}}